Powrót do katalogu

CZ-4 DEB

AktywnySSO
NORAD 26168·DEBRIS·🇨🇳 China

Wystrzelony Oct 14, 1999 z Taiyuan Satellite Launch Center

Loading…

Następne Przeloty (najbliższe 24 godziny)

TLE

ŚwieżeSource: Space-Track

Epoka: Sep 14, 2026, 22:27 UTC

1 26168U 99057BE  26257.93598470  .00000147  00000-0  63205-4 0  9992
2 26168  98.7847 304.8494 0102649  39.4608  84.2790 14.35841319386738

Śledź CZ-4 DEB w czasie rzeczywistym z AllMySat

Download on the App Store